| time (UTC) | temp C | wind direction | speed KPH | gust KPH | rain 1hr cm | rain 24hr cm | rain mn cm | humidity % | barometer mb |
| 20260505153023 | 12 | 266 | 22.5 | 0.0 | 0.00 | 0.00 | 0.00 | 33 | 978.7 |
| 20260505151507 | 11 | 269 | 22.5 | 0.0 | 0.00 | 0.00 | 0.00 | 33 | 978.7 |
| 20260505124507 | 11 | 294 | 17.7 | 0.0 | 0.00 | 0.00 | 0.00 | 59 | 977.9 |
| 20260505123023 | 11 | 298 | 11.3 | 0.0 | 0.00 | 0.00 | 0.00 | 55 | 976.3 |
| 20260505121507 | 11 | 326 | 11.3 | 0.0 | 0.00 | 0.00 | 0.00 | 55 | 976.3 |
| 20260505120026 | 10 | 325 | 12.9 | 0.0 | 0.00 | 0.00 | 0.00 | 55 | 976.3 |
| 20260505114507 | 10 | 318 | 9.7 | 0.0 | 0.00 | 0.00 | 0.00 | 61 | 976.2 |
| 20260505113015 | 10 | 332 | 14.5 | 0.0 | 0.00 | 0.00 | 0.00 | 63 | 974.7 |
| 20260505111507 | 10 | 337 | 14.5 | 0.0 | 0.00 | 0.00 | 0.00 | 63 | 974.6 |
| 20260505101507 | 10 | 287 | 17.7 | 0.0 | 0.00 | 0.00 | 0.00 | 52 | 973.1 |
| 20260505100028 | 10 | 275 | 16.1 | 0.0 | 0.00 | 0.00 | 0.00 | 52 | 973.1 |
| 20260505094507 | 11 | 278 | 16.1 | 0.0 | 0.00 | 0.00 | 0.00 | 50 | 973.3 |
| 20260505093024 | 11 | 274 | 14.5 | 0.0 | 0.00 | 0.00 | 0.00 | 48 | 972.9 |
| 20260505091507 | 11 | 257 | 16.1 | 0.0 | 0.00 | 0.00 | 0.00 | 48 | 973.0 |
| 20260505090028 | 12 | 261 | 16.1 | 0.0 | 0.00 | 0.00 | 0.00 | 48 | 973.0 |
| 20260505084505 | 12 | 274 | 14.5 | 0.0 | 0.00 | 0.00 | 0.00 | 66 | 973.3 |
| 20260505083021 | 12 | 270 | 12.9 | 0.0 | 0.00 | 0.00 | 0.00 | 67 | 972.5 |
| 20260505081507 | 11 | 257 | 12.9 | 0.0 | 0.00 | 0.00 | 0.00 | 67 | 972.5 |
| 20260505080026 | 11 | 250 | 12.9 | 0.0 | 0.00 | 0.00 | 0.00 | 49 | 972.7 |
| 20260505074507 | 12 | 246 | 14.5 | 0.0 | 0.00 | 0.00 | 0.00 | 74 | 972.0 |
| 20260505073024 | 12 | 251 | 14.5 | 0.0 | 0.00 | 0.00 | 0.00 | 74 | 972.0 |
| 20260505071507 | 13 | 244 | 20.9 | 0.0 | 0.00 | 0.00 | 0.00 | 74 | 972.0 |
| 20260505070026 | 13 | 220 | 16.1 | 0.0 | 0.00 | 0.00 | 0.00 | 74 | 972.0 |
| 20260505064507 | 13 | 241 | 14.5 | 0.0 | 0.00 | 0.00 | 0.00 | 66 | 972.4 |
| 20260505063015 | 13 | 236 | 14.5 | 0.0 | 0.00 | 0.00 | 0.00 | 76 | 971.9 |
| 20260505061507 | 13 | 238 | 14.5 | 0.0 | 0.00 | 0.00 | 0.00 | 76 | 971.9 |
| 20260505060028 | 14 | 240 | 16.1 | 0.0 | 0.00 | 0.00 | 0.00 | 76 | 971.9 |
| 20260505054507 | 14 | 242 | 17.7 | 0.0 | 0.00 | 0.00 | 0.00 | 72 | 973.2 |
| 20260505053024 | 14 | 259 | 20.9 | 0.0 | 0.00 | 0.00 | 0.00 | 62 | 971.7 |
| 20260505051507 | 15 | 256 | 24.1 | 0.0 | 0.00 | 0.00 | 0.00 | 62 | 971.8 |
| 20260505041507 | 16 | 229 | 24.1 | 0.0 | 0.03 | 0.03 | 0.03 | 65 | 971.4 |
| 20260505040027 | 16 | 207 | 24.1 | 0.0 | 0.03 | 0.03 | 0.03 | 65 | 971.4 |
| 20260505034504 | 17 | 228 | 32.2 | 0.0 | 0.00 | 0.00 | 0.00 | 55 | 971.4 |
| 20260505033023 | 16 | 215 | 27.4 | 0.0 | 0.00 | 0.00 | 0.00 | 59 | 971.4 |
| 20260505031507 | 16 | 209 | 27.4 | 0.0 | 0.00 | 0.00 | 0.00 | 59 | 971.4 |
| 20260505030027 | 16 | 204 | 27.4 | 0.0 | 0.00 | 0.00 | 0.00 | 59 | 971.4 |
| 20260505024507 | 17 | 199 | 30.6 | 0.0 | 0.00 | 0.00 | 0.00 | 51 | 971.5 |
| 20260505023023 | 17 | 209 | 30.6 | 0.0 | 0.00 | 0.00 | 0.00 | 59 | 971.5 |
| 20260505021507 | 17 | 206 | 29.0 | 0.0 | 0.00 | 0.00 | 0.00 | 59 | 971.4 |
| 20260505020026 | 17 | 206 | 27.4 | 0.0 | 0.00 | 0.00 | 0.00 | 59 | 971.4 |
| 20260505014507 | 17 | 213 | 29.0 | 0.0 | 0.00 | 0.00 | 0.00 | 50 | 970.6 |
| 20260505013021 | 18 | 206 | 29.0 | 0.0 | 0.00 | 0.00 | 0.00 | 50 | 970.6 |
| 20260505011508 | 17 | 207 | 29.0 | 0.0 | 0.00 | 0.00 | 0.00 | 50 | 970.5 |
| 20260505010024 | 18 | 206 | 27.4 | 0.0 | 0.00 | 0.00 | 0.00 | 50 | 970.5 |
| 20260505004507 | 18 | 210 | 12.9 | 0.0 | 0.00 | 0.00 | 0.00 | 41 | 971.3 |
| 20260505003021 | 18 | 204 | 11.3 | 0.0 | 0.00 | 0.00 | 0.00 | 40 | 971.9 |
| 20260505001506 | 19 | 202 | 11.3 | 0.0 | 0.00 | 0.00 | 0.00 | 40 | 971.9 |
| 20260505000019 | 20 | 210 | 11.3 | 0.0 | 0.00 | 0.00 | 0.00 | 40 | 971.9 |
| 20260504234506 | 20 | 220 | 14.5 | 0.0 | 0.00 | 0.00 | 0.00 | 34 | 972.1 |
| 20260504233022 | 21 | 227 | 19.3 | 0.0 | 0.00 | 0.00 | 0.00 | 34 | 971.9 |
| 20260504231505 | 21 | 231 | 19.3 | 0.0 | 0.00 | 0.00 | 0.00 | 34 | 971.8 |
| 20260504230024 | 21 | 235 | 22.5 | 0.0 | 0.00 | 0.00 | 0.00 | 34 | 971.8 |
| 20260504224506 | 22 | 240 | 25.7 | 0.0 | 0.00 | 0.00 | 0.00 | 34 | 971.8 |
| 20260504223022 | 22 | 246 | 27.4 | 0.0 | 0.00 | 0.00 | 0.00 | 34 | 972.2 |
| 20260504221506 | 22 | 245 | 27.4 | 0.0 | 0.00 | 0.00 | 0.00 | 34 | 972.2 |
| 20260504220027 | 22 | 243 | 29.0 | 0.0 | 0.00 | 0.00 | 0.00 | 34 | 972.2 |
| 20260504214505 | 22 | 240 | 30.6 | 0.0 | 0.00 | 0.00 | 0.00 | 35 | 973.1 |
| 20260504213022 | 22 | 235 | 30.6 | 0.0 | 0.00 | 0.00 | 0.00 | 35 | 973.1 |
| 20260504211505 | 22 | 236 | 32.2 | 0.0 | 0.00 | 0.00 | 0.00 | 31 | 972.0 |
| 20260504210024 | 22 | 231 | 30.6 | 0.0 | 0.00 | 0.00 | 0.00 | 31 | 972.0 |
| 20260504204510 | 22 | 237 | 32.2 | 0.0 | 0.00 | 0.00 | 0.00 | 31 | 972.8 |
| 20260504203013 | 22 | 236 | 32.2 | 0.0 | 0.00 | 0.00 | 0.00 | 31 | 972.8 |
| 20260504201510 | 22 | 236 | 32.2 | 0.0 | 0.00 | 0.00 | 0.00 | 31 | 972.8 |
| 20260504200018 | 22 | 236 | 33.8 | 0.0 | 0.00 | 0.00 | 0.00 | 35 | 972.1 |
| 20260504194510 | 22 | 236 | 35.4 | 0.0 | 0.00 | 0.00 | 0.00 | 27 | 972.8 |
| 20260504193023 | 22 | 231 | 33.8 | 0.0 | 0.00 | 0.00 | 0.00 | 27 | 972.8 |
| 20260504191511 | 22 | 228 | 33.8 | 0.0 | 0.00 | 0.00 | 0.00 | 27 | 972.8 |
| 20260504190025 | 22 | 225 | 33.8 | 0.0 | 0.00 | 0.00 | 0.00 | 27 | 972.8 |
| 20260504184506 | 22 | 229 | 29.0 | 0.0 | 0.00 | 0.00 | 0.00 | 23 | 974.0 |
| 20260504183024 | 22 | 227 | 29.0 | 0.0 | 0.00 | 0.00 | 0.00 | 24 | 973.6 |
| 20260504181510 | 22 | 229 | 27.4 | 0.0 | 0.00 | 0.00 | 0.00 | 24 | 973.6 |
| 20260504180027 | 22 | 232 | 27.4 | 0.0 | 0.00 | 0.00 | 0.00 | 24 | 973.6 |
| 20260504174510 | 22 | 236 | 30.6 | 0.0 | 0.00 | 0.00 | 0.00 | 32 | 974.5 |
| 20260504173014 | 22 | 238 | 30.6 | 0.0 | 0.00 | 0.00 | 0.00 | 30 | 974.4 |
| 20260504171510 | 21 | 240 | 30.6 | 0.0 | 0.00 | 0.00 | 0.00 | 30 | 974.4 |